Starlink 30240

operational
NORAD ID: 57404 Int'l Des: 2023-102 Owner: SPXS Country: US Constellation: starlink
LEOCIRCULAR

关于 Starlink 30240

正在加载描述...

实时位置

正在加载3D地球...

即将过境

高度历史

Altitude vs Time

uPlot chart will show altitude changes over time

两行轨道根数

1 57404U 23102A 25352.32156151 .00000940 00000-0 84669-4 0 9999
2 57404 43.0052 331.2534 0001301 275.2914 84.7780 15.02524556133996
Epoch: Dec 18, 2025 • Age: 20 hours

当前状态

高度 563.0 km
速度 7.59 km/s
星下点 42.22°N, 66.19°W
发射日期 Jul 19, 2023
运行时间 2.4 years
类型 internet

技术详情

分类 Payload
质量 730.00 kg
干质量 700.00 kg
总质量 730.00 kg
长度 0.30 m
直径 4.10 m
跨度 29.00 m
形状 Box + pan
制造商 SPXS
平台类型 Starlink V2M
阶段状态 In Orbit
所有者/国家 SPXS/US

大型星座

Loading constellations...